[[{"header":{"parameterUnit":"m.s-1","parameterCategory":1,"la1":30.2991,"la2":30.254,"lo1":-89.0895,"lo2":-89.0444,"dy":0.0017,"dx":0.0017,"nx":28,"ny":28,"refTime":"2026-02-14T09:00:00:Z","depth":0,"parameterNumber":2,"parameterNumberName":"U-component_of_WINDS"},"data":[0,0,0,0,0,0,0,0,0,0,0,0,0,0,0,0,0,0,0,0,0,0,0,0,0,0,0,0,0,0,0,0,0,0,0,0,0,0,0,0,0,0,0,0,0,0,0,0,0,0,0,0,0,0,0,0,0,0,6.0198,6.0198,0,6.0124,6.0123,6.0122,6.0108,6.0109,6.0109,6.011,6.0032,6.0029,6.0027,0,0,0,0,0,0,0,0,0,0,0,0,0,6.0328,6.0326,6.0199,6.0198,6.0197,6.0124,6.0123,6.0122,6.0108,6.0109,6.0109,6.011,6.0033,6.003,6.0027,0,0,0,0,0,0,0,0,0,0,0,0,0,6.0264,6.0325,6.0199,6.0181,6.0179,6.0124,6.0123,6.0122,6.0108,6.0109,6.011,6.011,6.0034,6.003,6.0026,5.9984,0,0,6.0014,6.0012,0,0,0,0,0,0,0,0,6.0268,6.026,6.0184,6.0182,6.0179,6.0126,6.014,6.0076,6.0108,6.0135,6.011,6.0111,6.0063,6.0056,6.004,5.998,5.9977,6.0014,6.0011,6.001,6.0008,0,0,0,0,0,0,0,6.0273,6.0263,6.0169,6.0183,6.018,6.0177,6.0169,6.0128,6.0094,6.0132,6.0131,6.0123,6.0061,6.0044,6.0038,5.9976,6.0014,6.001,6.0008,6.0006,5.9879,5.9878,0,0,0,0,0,0,6.028,6.0267,6.0171,6.0167,6.0227,6.0174,6.0165,6.0142,6.0095,6.0088,6.0122,6.0122,6.005,6.0043,6.0036,5.9983,6.001,6.0006,6.0004,5.988,5.9878,5.9877,0,0,0,0,0,0,6.0283,6.0272,6.0174,6.0216,6.0204,6.017,6.0146,6.014,6.0123,6.0087,6.0081,6.0111,6.0051,6.0041,5.9997,5.998,6.0004,6.0001,5.9881,5.9879,5.9878,5.9878,0,0,0,0,0,0,6.0287,6.0273,6.0256,6.0216,6.0202,6.0137,6.0145,6.0138,6.0117,6.0116,6.0075,6.0069,6.0051,6.0003,5.9993,5.9975,5.9998,5.9882,5.988,5.9878,5.9879,5.9877,5.9874,0,0,0,0,0,6.0292,6.0259,6.0256,6.0244,6.018,6.0136,6.0128,6.0108,6.0115,6.0098,6.0076,6.007,5.9984,5.9999,5.9988,5.9968,5.9883,5.9881,5.9879,5.988,5.9877,5.9874,0,0,0,0,0,0,6.0296,6.0253,6.0249,6.0202,6.0173,6.0134,6.0112,6.0105,6.0073,6.0074,6.0051,6.0042,5.9999,5.998,5.9997,5.9925,5.9934,5.993,5.9939,5.9936,5.9934,5.9938,5.9994,0,0,0,0,0,6.0292,6.0261,6.0224,6.0187,6.0172,6.0145,6.0125,6.0113,6.0081,6.0069,6.0043,6.0012,5.9978,5.9956,5.9923,5.9877,5.9868,5.9859,5.9856,5.9854,5.985,5.9825,5.982,5.987,5.987,5.987,0,0,6.0283,6.0255,6.0236,6.0187,6.0163,6.013,6.0134,6.0099,6.0075,6.0063,6.002,6.0,5.9965,5.992,5.9899,5.9902,5.9835,5.9851,5.985,5.9847,5.9822,5.9817,5.9813,5.9868,5.9869,5.9869,0,0,6.0249,6.0225,6.0191,6.0168,6.0132,6.0114,6.0107,6.0069,6.0055,6.0012,6.0003,5.9974,5.9916,5.9892,5.9872,5.9832,5.9825,5.9822,5.9808,5.9784,5.978,5.9776,5.9761,5.9756,5.9818,5.9818,5.9818,0,6.0241,6.0192,6.0174,6.014,6.0119,6.0109,6.0074,6.0052,6.0008,5.9993,5.9998,5.9927,5.9902,5.9851,5.9842,5.9826,5.9816,5.9825,5.9782,5.9778,5.9774,5.976,5.9755,5.9818,5.9818,5.9818,5.9818,0,6.0184,6.0151,6.0128,6.0086,6.0062,6.0028,6.0006,5.9984,5.9975,5.9957,5.9914,5.9885,5.9846,5.9834,5.9824,5.9782,5.9785,5.9786,5.9794,5.977,5.9756,5.975,5.9817,5.9817,5.9817,5.9818,0,0,6.0148,6.0099,6.0091,6.0072,6.0033,6.0007,5.9973,5.9936,5.9918,5.9889,5.9859,5.9813,5.9814,5.9791,5.9779,5.9758,5.9728,5.9762,5.9761,5.9756,5.968,5.9679,5.9673,5.9725,5.9724,5.9723,5.9683,0,6.0108,6.0048,6.0032,5.9981,5.995,5.9941,5.9912,5.9885,5.9868,5.984,5.9821,5.9788,5.9792,5.9779,5.9758,5.9736,5.9713,5.9739,5.9697,5.9696,5.9704,5.9665,5.9663,5.9626,5.9678,5.9677,5.9676,0,6.0053,6.0023,5.9969,5.9936,5.9922,5.9896,5.9862,5.9835,5.9805,5.9794,5.9771,5.9761,5.9726,5.9738,5.969,5.9708,5.9691,5.9678,5.9676,5.967,5.9683,5.9657,5.9614,5.9608,5.9667,5.9668,5.9669,0,6.0031,5.9978,5.9939,5.9923,5.9884,5.9866,5.9848,5.982,5.9799,5.977,5.9756,5.9723,5.9704,5.9679,5.9661,5.9671,5.9614,5.9624,5.9603,5.9604,5.9589,5.959,5.9542,5.9581,5.9581,5.9581,5.9581,0,5.9987,5.9954,5.9928,5.9904,5.9867,5.9851,5.9814,5.9797,5.9772,5.9744,5.9735,5.9709,5.9688,5.966,5.9646,5.9608,5.9599,5.959,5.9586,5.9589,5.959,5.9576,5.9577,5.958,5.958,5.958,5.9581,0,5.9955,5.9937,5.9893,5.9861,5.9852,5.9826,5.9798,5.9774,5.9759,5.9724,5.9714,5.9689,5.9655,5.9636,5.9593,5.9584,5.9541,5.9539,5.9551,5.9549,5.9529,5.9531,5.9469,5.9459,5.9506,5.9506,5.9505,0,5.9927,5.9902,5.9867,5.9848,5.9831,5.9801,5.9781,5.9764,5.9743,5.9709,5.9689,5.9655,5.9627,5.9573,5.9551,5.9519,5.9515,5.9496,5.951,5.9515,5.9514,5.9515,5.9512,5.9493,5.9492,5.9492,5.9492,0,5.988,5.9873,5.9844,5.9812,5.9789,5.9763,5.9737,5.9722,5.9702,5.9679,5.9645,5.9623,5.958,5.9546,5.9513,5.9495,5.9489,5.9488,5.9481,5.9483,5.9491,5.9486,5.9543,5.9489,5.9489,5.9489,5.9489,5.9489,5.9848,5.9825,5.9798,5.9767,5.9746,5.9723,5.9699,5.9682,5.9653,5.9617,5.961,5.9574,5.9547,5.9501,5.9483,5.9454,5.9458,5.9448,5.9445,5.9443,5.9442,5.9497,5.9448,5.9448,5.9449,5.9449,5.9449,0,5.9799,5.9782,5.9754,5.9719,5.9694,5.9694,5.9666,5.9645,5.9614,5.9589,5.9562,5.9524,5.9492,5.9468,5.9436,5.9418,5.9415,5.941,5.941,5.9406,5.9441,5.945,5.9413,5.9413,5.9413,5.9413,5.9413,5.9413,5.9771,5.9733,5.9723,5.9675,5.9658,5.9623,5.9607,5.9586,5.9566,5.9524,5.9498,5.9483,5.9459,5.9425,5.9396,5.939,5.9378,5.9373,5.9366,5.9399,5.9403,5.9407,5.9415,5.9371,5.9371,5.9333,5.9333,5.9333]},{"header":{"parameterUnit":"m.s-1","parameterCategory":1,"la1":30.2991,"la2":30.254,"lo1":-89.0895,"lo2":-89.0444,"dy":0.0017,"dx":0.0017,"nx":28,"ny":28,"refTime":"2026-02-14T09:00:00:Z","depth":0,"parameterNumber":3,"parameterNumberName":"V-component_of_WINDS"},"data":[0,0,0,0,0,0,0,0,0,0,0,0,0,0,0,0,0,0,0,0,0,0,0,0,0,0,0,0,0,0,0,0,0,0,0,0,0,0,0,0,0,0,0,0,0,0,0,0,0,0,0,0,0,0,0,0,0,0,3.6448,3.6449,0,3.6605,3.6607,3.6609,3.6645,3.6644,3.6643,3.6642,3.6803,3.6808,3.6813,0,0,0,0,0,0,0,0,0,0,0,0,0,3.6178,3.6182,3.6447,3.6449,3.6451,3.6605,3.6607,3.6609,3.6645,3.6644,3.6643,3.6641,3.6801,3.6807,3.6813,0,0,0,0,0,0,0,0,0,0,0,0,0,3.6311,3.6184,3.6447,3.6488,3.6493,3.6604,3.6607,3.661,3.6645,3.6644,3.6642,3.6641,3.6799,3.6806,3.6814,3.6896,0,0,3.6839,3.6842,0,0,0,0,0,0,0,0,3.6303,3.6321,3.648,3.6485,3.6491,3.6604,3.6571,3.6706,3.6646,3.6588,3.6642,3.664,3.6738,3.6751,3.6784,3.6903,3.691,3.6839,3.6844,3.6847,3.685,0,0,0,0,0,0,0,3.6294,3.6314,3.651,3.6482,3.6489,3.6498,3.6515,3.6596,3.667,3.6593,3.6596,3.6614,3.674,3.6776,3.6788,3.6913,3.6839,3.6846,3.6851,3.6854,3.7108,3.711,0,0,0,0,0,0,3.6278,3.6306,3.6505,3.6515,3.6391,3.6504,3.6524,3.6569,3.6669,3.6683,3.6615,3.6615,3.6763,3.6778,3.6793,3.6897,3.6847,3.6855,3.6859,3.7106,3.7108,3.711,0,0,0,0,0,0,3.6272,3.6295,3.6498,3.6411,3.6438,3.6511,3.6562,3.6573,3.6609,3.6686,3.6699,3.6638,3.6762,3.6782,3.687,3.6903,3.6858,3.6866,3.7103,3.7106,3.7109,3.7102,0,0,0,0,0,0,3.6264,3.6293,3.6325,3.6412,3.6442,3.6573,3.6564,3.6578,3.6622,3.6624,3.6711,3.6724,3.6763,3.6858,3.6878,3.6913,3.6872,3.7101,3.7105,3.7108,3.71,3.7105,3.7109,0,0,0,0,0,3.6254,3.6316,3.6326,3.635,3.6484,3.6575,3.6592,3.6636,3.6625,3.6658,3.6707,3.6721,3.6895,3.6867,3.689,3.6927,3.7099,3.7104,3.7108,3.7098,3.7104,3.7108,0,0,0,0,0,0,3.6231,3.6328,3.634,3.6432,3.6495,3.6581,3.6623,3.664,3.6707,3.6706,3.6757,3.6776,3.6861,3.6903,3.6869,3.7011,3.6997,3.7006,3.6982,3.6988,3.6992,3.6981,3.6878,0,0,0,0,0,3.6236,3.6302,3.6383,3.6457,3.6488,3.655,3.6591,3.6619,3.6686,3.6713,3.6769,3.6833,3.6902,3.6947,3.7015,3.7105,3.7126,3.7142,3.7147,3.715,3.7158,3.721,3.7218,3.7125,3.7125,3.7125,0,0,3.6248,3.631,3.6348,3.6454,3.6506,3.6573,3.6572,3.6643,3.6693,3.6723,3.6811,3.6853,3.6928,3.7018,3.7061,3.7056,3.7188,3.7155,3.7157,3.7164,3.7215,3.7224,3.7232,3.7128,3.7127,3.7127,0,0,3.6305,3.6358,3.6425,3.6477,3.6556,3.6597,3.6613,3.6696,3.6726,3.6814,3.6838,3.6898,3.7016,3.7069,3.7111,3.7188,3.7204,3.7208,3.7232,3.7282,3.7289,3.7296,3.7324,3.7334,3.7215,3.7215,3.7215,0,3.631,3.6413,3.6457,3.6528,3.6574,3.6604,3.6673,3.6721,3.6817,3.6848,3.6841,3.699,3.7043,3.7146,3.7164,3.7197,3.7218,3.7199,3.7284,3.7292,3.7299,3.7326,3.7337,3.7216,3.7216,3.7216,3.7216,0,3.6416,3.6486,3.6531,3.6624,3.6675,3.6744,3.6799,3.6845,3.6869,3.691,3.7,3.7063,3.7145,3.7171,3.7195,3.7278,3.7273,3.7274,3.7261,3.7307,3.7334,3.7345,3.7216,3.7216,3.7216,3.7216,0,0,3.6463,3.658,3.6596,3.6639,3.6728,3.6783,3.6853,3.6934,3.6973,3.7037,3.7098,3.7197,3.7199,3.7247,3.7276,3.732,3.7378,3.7317,3.7319,3.7327,3.7475,3.7475,3.7486,3.7388,3.739,3.7392,3.7469,0,3.6532,3.6659,3.6702,3.6807,3.6874,3.6903,3.6964,3.7025,3.7066,3.7128,3.7172,3.7242,3.7239,3.7268,3.7312,3.7361,3.7409,3.7356,3.7446,3.7449,3.7428,3.75,3.75,3.757,3.748,3.7482,3.7483,0,3.663,3.6697,3.681,3.6891,3.692,3.6974,3.7052,3.711,3.718,3.7206,3.7259,3.7286,3.736,3.7341,3.7445,3.7408,3.7447,3.7477,3.748,3.7492,3.747,3.7515,3.7593,3.7604,3.75,3.7498,3.7497,0,3.6655,3.6773,3.6857,3.6892,3.6988,3.7026,3.7068,3.7136,3.7181,3.7248,3.7279,3.7353,3.7395,3.7452,3.7497,3.7479,3.7597,3.7582,3.7622,3.7621,3.7647,3.7645,3.7734,3.7669,3.7669,3.7669,3.7669,0,3.6728,3.6796,3.6869,3.692,3.6997,3.7045,3.712,3.7163,3.7223,3.7283,3.7312,3.7368,3.7424,3.7487,3.7523,3.7604,3.7622,3.7646,3.7655,3.7645,3.7642,3.7672,3.7669,3.7672,3.7671,3.7671,3.767,0,3.677,3.6821,3.6914,3.6998,3.702,3.7073,3.7145,3.7196,3.7237,3.7313,3.7333,3.7398,3.7474,3.7525,3.7621,3.7645,3.7734,3.7741,3.7711,3.7716,3.7754,3.775,3.7867,3.7885,3.7806,3.7806,3.7807,0,3.6814,3.6867,3.6957,3.6999,3.7042,3.7109,3.7157,3.7205,3.7253,3.7336,3.7377,3.7454,3.752,3.7639,3.7695,3.7769,3.7779,3.7815,3.7791,3.7779,3.7782,3.7779,3.7785,3.7819,3.782,3.782,3.7821,0,3.6888,3.6911,3.6978,3.7054,3.7109,3.7171,3.7233,3.7266,3.7325,3.7378,3.7456,3.7506,3.7605,3.7682,3.7761,3.7804,3.7823,3.7828,3.7841,3.7832,3.7813,3.7826,3.7723,3.7825,3.7825,3.7825,3.7824,3.7824,3.6933,3.6982,3.7053,3.7127,3.7179,3.7236,3.7289,3.7337,3.7403,3.7488,3.7512,3.7593,3.7662,3.777,3.7814,3.7879,3.7875,3.7895,3.79,3.7904,3.7905,3.7801,3.7893,3.7893,3.7893,3.7893,3.7893,0,3.701,3.7057,3.7124,3.7211,3.7269,3.7281,3.735,3.7398,3.747,3.7532,3.7595,3.7685,3.776,3.7822,3.7899,3.7939,3.7949,3.7958,3.7956,3.7966,3.7903,3.7885,3.7948,3.7948,3.7948,3.7948,3.7948,3.7948,3.7057,3.7141,3.7172,3.7282,3.7329,3.7409,3.7448,3.7501,3.7552,3.7651,3.7713,3.7753,3.7815,3.7897,3.7967,3.7983,3.8011,3.8017,3.8035,3.7976,3.797,3.7964,3.7947,3.8023,3.8023,3.8093,3.8094,3.8094]}]]